| time (UTC) | temp C | wind direction | speed KPH | gust KPH | rain 1hr cm | rain 24hr cm | rain mn cm | humidity % | barometer mb |
| 20260906113017 | 13 | 49 | 0.0 | 3.2 | 0.00 | 0.00 | 0.00 | 96 | 1017.4 |
| 20260906111557 | 14 | 42 | 0.0 | 6.4 | 0.00 | 0.00 | 0.00 | 96 | 1017.3 |
| 20260906110007 | 13 | 42 | 0.0 | 3.2 | 0.00 | 0.00 | 0.00 | 96 | 1017.2 |
| 20260906104534 | 13 | 44 | 0.0 | 1.6 | 0.00 | 0.00 | 0.00 | 96 | 1017.2 |
| 20260906103100 | 13 | 44 | 0.0 | 0.0 | 0.00 | 0.00 | 0.00 | 95 | 1017.0 |
| 20260906101524 | 13 | 44 | 0.0 | 0.0 | 0.00 | 0.00 | 0.00 | 95 | 1016.8 |
| 20260906100057 | 14 | 44 | 0.0 | 3.2 | 0.00 | 0.00 | 0.00 | 95 | 1016.7 |
| 20260906094526 | 14 | 13 | 0.0 | 0.0 | 0.00 | 0.00 | 0.00 | 95 | 1016.8 |
| 20260906093049 | 14 | 19 | 0.0 | 3.2 | 0.00 | 0.00 | 0.00 | 96 | 1016.9 |
| 20260906091520 | 15 | 12 | 0.0 | 4.8 | 0.00 | 0.00 | 0.00 | 96 | 1016.8 |
| 20260906090041 | 14 | 53 | 0.0 | 1.6 | 0.00 | 0.00 | 0.00 | 96 | 1016.8 |
| 20260906084506 | 14 | 300 | 0.0 | 0.0 | 0.00 | 0.00 | 0.00 | 96 | 1016.8 |
| 20260906083033 | 14 | 300 | 0.0 | 0.0 | 0.00 | 0.00 | 0.00 | 96 | 1016.6 |
| 20260906081603 | 14 | 300 | 0.0 | 0.0 | 0.00 | 0.00 | 0.00 | 95 | 1016.5 |
| 20260906080021 | 15 | 300 | 0.0 | 0.0 | 0.00 | 0.00 | 0.00 | 95 | 1016.5 |
| 20260906074551 | 15 | 300 | 0.0 | 0.0 | 0.00 | 0.00 | 0.00 | 95 | 1016.5 |
| 20260906073010 | 15 | 300 | 0.0 | 0.0 | 0.00 | 0.00 | 0.00 | 94 | 1016.7 |
| 20260906071536 | 15 | 300 | 0.0 | 0.0 | 0.00 | 0.00 | 0.00 | 94 | 1016.5 |
| 20260906064525 | 16 | 300 | 0.0 | 0.0 | 0.00 | 0.00 | 0.00 | 93 | 1016.4 |
| 20260906063054 | 16 | 300 | 0.0 | 0.0 | 0.00 | 0.00 | 0.00 | 91 | 1016.3 |
| 20260906061519 | 16 | 300 | 0.0 | 0.0 | 0.00 | 0.00 | 0.00 | 90 | 1016.5 |
| 20260906060047 | 17 | 300 | 0.0 | 1.6 | 0.00 | 0.00 | 0.00 | 90 | 1016.5 |
| 20260906054509 | 17 | 301 | 0.0 | 0.0 | 0.00 | 0.00 | 0.00 | 91 | 1016.2 |
| 20260906053038 | 17 | 293 | 0.0 | 1.6 | 0.00 | 0.00 | 0.00 | 92 | 1016.0 |
| 20260906051502 | 18 | 303 | 0.0 | 1.6 | 0.00 | 0.00 | 0.00 | 93 | 1016.1 |
| 20260906050030 | 18 | 3 | 0.0 | 0.0 | 0.00 | 0.00 | 0.00 | 95 | 1015.8 |
| 20260906044607 | 18 | 8 | 0.0 | 0.0 | 0.00 | 0.00 | 0.00 | 96 | 1015.8 |
| 20260906043021 | 18 | 7 | 0.0 | 0.0 | 0.00 | 0.00 | 0.00 | 96 | 1015.7 |
| 20260906041551 | 18 | 8 | 0.0 | 0.0 | 0.00 | 0.00 | 0.00 | 96 | 1015.7 |
| 20260906040023 | 18 | 8 | 0.0 | 0.0 | 0.00 | 0.00 | 0.00 | 95 | 1015.4 |
| 20260906034541 | 19 | 8 | 0.0 | 0.0 | 0.00 | 0.00 | 0.00 | 95 | 1015.5 |
| 20260906033018 | 19 | 8 | 0.0 | 0.0 | 0.00 | 0.00 | 0.00 | 95 | 1015.2 |
| 20260906031533 | 19 | 8 | 0.0 | 0.0 | 0.00 | 0.00 | 0.00 | 95 | 1015.2 |
| 20260906030104 | 19 | 8 | 0.0 | 0.0 | 0.00 | 0.00 | 0.00 | 95 | 1015.1 |
| 20260906024525 | 19 | 8 | 0.0 | 0.0 | 0.00 | 0.00 | 0.00 | 95 | 1015.3 |
| 20260906023101 | 19 | 8 | 0.0 | 0.0 | 0.00 | 0.00 | 0.00 | 95 | 1015.2 |
| 20260906021517 | 19 | 8 | 0.0 | 0.0 | 0.00 | 0.00 | 0.00 | 94 | 1015.1 |
| 20260906020045 | 20 | 8 | 0.0 | 0.0 | 0.00 | 0.00 | 0.00 | 94 | 1014.8 |
| 20260906014509 | 20 | 8 | 0.0 | 0.0 | 0.00 | 0.00 | 0.00 | 93 | 1014.6 |
| 20260906013035 | 20 | 8 | 0.0 | 0.0 | 0.00 | 0.00 | 0.00 | 93 | 1014.6 |
| 20260906011603 | 20 | 8 | 0.0 | 0.0 | 0.00 | 0.00 | 0.00 | 93 | 1014.5 |
| 20260906010029 | 20 | 347 | 0.0 | 0.0 | 0.00 | 0.00 | 0.00 | 93 | 1014.3 |
| 20260906004556 | 20 | 288 | 0.0 | 1.6 | 0.00 | 0.00 | 0.00 | 92 | 1014.1 |
| 20260906003021 | 20 | 306 | 0.0 | 0.0 | 0.00 | 0.00 | 0.00 | 92 | 1014.1 |
| 20260906001551 | 20 | 13 | 0.0 | 0.0 | 0.00 | 0.00 | 0.00 | 91 | 1014.1 |
| 20260906000014 | 21 | 265 | 0.0 | 4.8 | 0.00 | 0.00 | 0.00 | 91 | 1014.1 |
| 20260905234539 | 21 | 20 | 1.6 | 8.0 | 0.00 | 0.00 | 0.00 | 90 | 1014.1 |
| 20260905233006 | 21 | 23 | 0.0 | 4.8 | 0.00 | 0.00 | 0.00 | 89 | 1014.1 |
| 20260905231536 | 21 | 25 | 0.0 | 3.2 | 0.00 | 0.00 | 0.00 | 88 | 1013.9 |
| 20260905230106 | 21 | 31 | 0.0 | 1.6 | 0.00 | 0.00 | 0.00 | 88 | 1013.9 |
| 20260905224602 | 21 | 26 | 0.0 | 8.0 | 0.00 | 0.00 | 0.00 | 88 | 1013.8 |
| 20260905223106 | 21 | 36 | 0.0 | 8.0 | 0.00 | 0.00 | 0.00 | 89 | 1013.6 |
| 20260905221521 | 22 | 17 | 0.0 | 4.8 | 0.00 | 0.00 | 0.00 | 89 | 1013.3 |
| 20260905220047 | 22 | 278 | 0.0 | 8.0 | 0.00 | 0.00 | 0.00 | 89 | 1013.2 |
| 20260905214515 | 22 | 312 | 0.0 | 3.2 | 0.00 | 0.00 | 0.00 | 88 | 1013.0 |
| 20260905213044 | 23 | 49 | 0.0 | 1.6 | 0.00 | 0.00 | 0.00 | 88 | 1012.8 |
| 20260905211528 | 23 | 26 | 0.0 | 1.6 | 0.00 | 0.00 | 0.00 | 88 | 1012.9 |
| 20260905210047 | 23 | 23 | 0.0 | 1.6 | 0.00 | 0.00 | 0.00 | 85 | 1012.9 |
| 20260905204504 | 24 | 16 | 0.0 | 3.2 | 0.00 | 0.00 | 0.00 | 85 | 1012.9 |
| 20260905203027 | 24 | 20 | 0.0 | 0.0 | 0.00 | 0.00 | 0.00 | 84 | 1012.9 |
| 20260905201557 | 24 | 10 | 0.0 | 0.0 | 0.00 | 0.00 | 0.00 | 85 | 1013.1 |
| 20260905200026 | 25 | 306 | 0.0 | 0.0 | 0.00 | 0.03 | 0.00 | 83 | 1013.1 |
| 20260905194552 | 24 | 304 | 0.0 | 1.6 | 0.00 | 0.03 | 0.00 | 82 | 1013.0 |
| 20260905193019 | 24 | 25 | 0.0 | 0.0 | 0.00 | 0.03 | 0.00 | 84 | 1013.1 |
| 20260905191546 | 24 | 10 | 0.0 | 0.0 | 0.00 | 0.03 | 0.00 | 85 | 1013.2 |
| 20260905190013 | 24 | 28 | 0.0 | 0.0 | 0.00 | 0.03 | 0.00 | 84 | 1013.2 |
| 20260905184553 | 24 | 41 | 0.0 | 0.0 | 0.00 | 0.03 | 0.00 | 83 | 1013.2 |
| 20260905183007 | 24 | 44 | 0.0 | 0.0 | 0.00 | 0.03 | 0.00 | 84 | 1013.3 |
| 20260905181537 | 24 | 43 | 0.0 | 3.2 | 0.00 | 0.03 | 0.00 | 84 | 1013.4 |
| 20260905180006 | 24 | 23 | 0.0 | 0.0 | 0.00 | 0.03 | 0.00 | 85 | 1013.3 |
| 20260905174536 | 24 | 15 | 0.0 | 0.0 | 0.00 | 0.03 | 0.00 | 86 | 1013.4 |
| 20260905173123 | 23 | 37 | 0.0 | 0.0 | 0.00 | 0.03 | 0.00 | 86 | 1013.4 |
| 20260905171523 | 23 | 236 | 0.0 | 0.0 | 0.00 | 0.03 | 0.00 | 88 | 1013.6 |
| 20260905170105 | 23 | 41 | 0.0 | 0.0 | 0.00 | 0.03 | 0.00 | 90 | 1013.8 |
| 20260905164524 | 23 | 335 | 0.0 | 0.0 | 0.00 | 0.03 | 0.00 | 94 | 1013.7 |
| 20260905163036 | 22 | 41 | 0.0 | 3.2 | 0.00 | 0.03 | 0.00 | 96 | 1013.7 |
| 20260905161505 | 21 | 28 | 0.0 | 6.4 | 0.00 | 0.03 | 0.00 | 96 | 1013.7 |
| 20260905160030 | 21 | 34 | 0.0 | 9.7 | 0.00 | 0.03 | 0.00 | 96 | 1014.0 |
| 20260905154610 | 21 | 36 | 1.6 | 6.4 | 0.00 | 0.03 | 0.00 | 96 | 1013.7 |
| 20260905153025 | 21 | 39 | 0.0 | 4.8 | 0.00 | 0.03 | 0.00 | 96 | 1013.8 |
| 20260905151558 | 21 | 27 | 1.6 | 8.0 | 0.00 | 0.03 | 0.00 | 96 | 1013.6 |
| 20260905150026 | 20 | 29 | 0.0 | 4.8 | 0.00 | 0.03 | 0.00 | 96 | 1013.6 |
| 20260905144555 | 20 | 240 | 0.0 | 0.0 | 0.00 | 0.03 | 0.00 | 96 | 1013.7 |
| 20260905143021 | 20 | 239 | 0.0 | 0.0 | 0.00 | 0.03 | 0.00 | 96 | 1013.4 |
| 20260905141547 | 20 | 353 | 0.0 | 1.6 | 0.00 | 0.03 | 0.00 | 96 | 1013.3 |
| 20260905140012 | 20 | 353 | 0.0 | 0.0 | 0.00 | 0.03 | 0.00 | 96 | 1013.2 |
| 20260905134538 | 20 | 353 | 0.0 | 0.0 | 0.00 | 0.03 | 0.00 | 96 | 1013.2 |
| 20260905133006 | 19 | 353 | 0.0 | 1.6 | 0.00 | 0.03 | 0.00 | 96 | 1013.3 |
| 20260905131536 | 18 | 27 | 0.0 | 4.8 | 0.00 | 0.03 | 0.00 | 96 | 1013.2 |
| 20260905130001 | 19 | 32 | 0.0 | 1.6 | 0.00 | 0.03 | 0.00 | 96 | 1013.3 |
| 20260905124530 | 18 | 32 | 0.0 | 1.6 | 0.00 | 0.03 | 0.00 | 96 | 1013.1 |
| 20260905123105 | 18 | 254 | 0.0 | 0.0 | 0.00 | 0.03 | 0.00 | 96 | 1013.0 |
| 20260905121517 | 18 | 15 | 0.0 | 1.6 | 0.00 | 0.03 | 0.00 | 96 | 1012.8 |
| 20260905120043 | 18 | 19 | 1.6 | 6.4 | 0.00 | 0.03 | 0.00 | 97 | 1012.7 |
| 20260905114509 | 18 | 310 | 0.0 | 0.0 | 0.00 | 0.03 | 0.00 | 97 | 1012.2 |